Starlink 30918

operational
NORAD ID: 58365 Int'l Des: 2023-177 Owner: SPXS Country: US Constellation: starlink
LEOCIRCULAR

Über Starlink 30918

Beschreibung wird geladen...

Live-Position

3D-Globus wird geladen...

Nächste Überflüge

Höhenverlauf

Altitude vs Time

uPlot chart will show altitude changes over time

Zweizeiliger Elementsatz

1 58365U 23177Q 25303.51791199 .00000006 00000-0 15535-4 0 9991
2 58365 43.0046 338.9843 0001258 261.8312 98.2388 15.02535347108634
Epoch: 30. Okt. 2025 • Age: 23 hours

Aktueller Status

Höhe 560.2 km
Geschwindigkeit 7.58 km/s
Subsatellitenpunkt -8.85°S, 51.05°W
Startdatum 18. Nov. 2023
Alter 1.9 years
Typ internet

Technische Details

Klassifizierung Payload
Masse 730.00 kg
Trockenmasse 700.00 kg
Gesamtmasse 730.00 kg
Länge 0.30 m
Durchmesser 4.10 m
Spannweite 29.00 m
Form Box + pan
Hersteller SPXS
Bus-Typ Starlink V2M
Phasenstatus In Orbit
Besitzer/Staat SPXS/US

Große Konstellationen

Loading constellations...